sat.trackr.live / text

‹ back to catalog

STARLINK-37919

NORAD 69957 · 2026-157Q

PAYLOAD ACTIVE UNKNOWN

§ Identity

Operator
Country
US
Launch date
2026-07-09
Launch site
AFETR
Launch vehicle
Mass (kg)
RCS (m²)

Purposes: comms

External: N2YO · Heavens-Above · Gunter

§ Orbital elements

Epoch: 2026-09-20T04:54:27.714816Z

Period
93.85 min
Inclination
53.1596°
Eccentricity
0.0001188
Mean motion
15.34403564 rev/d
Perigee alt
461.9 km
Apogee alt
463.5 km
Semi-major
6,840.8 km
B*
5.6948e-5
RAAN
335.3867°
Arg perigee
75.2901°
Mean anomaly
284.8233°
Rev number
1,132

§ Raw data

STARLINK-379191 69957U 26157Q   26263.20448744  .00001548  00000+0  56948-4 0  99922 69957  53.1596 335.3867 0001188  75.2901 284.8233 15.34403564 11326

JSON: /api/v1/satellites/69957 · /tle

For live sub-satellite position, see the globe view (requires WebGL).

§ Visibility from observer

Set your observer location to see the next 7 days of passes ≥ 10°. The values pass through the URL so the page stays shareable.

No JS? Fill the form by hand. The geolocation button needs JavaScript.